FW5778 Weather Reports


Display with metric or nautical units.
time (UTC)temp
F
wind
direction
speed
MPH
gust
MPH
rain 1hr
in
rain 24hr
in
rain mn
in
humidity
%
barometer
mb
20260905024557 81 216 5.0 12.0 0.00 0.00 0.00 21 1007.8
20260905024047 81 225 5.0 12.0 0.00 0.00 0.00 21 1007.8
20260905023548 81 235 5.0 14.0 0.00 0.00 0.00 21 1007.7
20260905023048 81 165 6.0 14.0 0.00 0.00 0.00 21 1007.6
20260905022547 81 175 6.0 14.0 0.00 0.00 0.00 21 1007.6
20260905022047 81 208 6.0 12.0 0.00 0.00 0.00 21 1007.5
20260905021547 81 151 6.0 14.0 0.00 0.00 0.00 21 1007.5
20260905021047 82 231 5.0 14.0 0.00 0.00 0.00 21 1007.5
20260905020547 82 157 6.0 18.0 0.00 0.00 0.00 21 1007.3
20260905020147 82 218 8.0 18.0 0.00 0.00 0.00 21 1007.3
20260905015546 82 149 5.0 16.0 0.00 0.00 0.00 20 1007.3
20260905015045 82 158 5.0 14.0 0.00 0.00 0.00 21 1007.2
20260905014546 83 154 5.0 17.0 0.00 0.00 0.00 20 1007.3
20260905014045 83 158 9.0 18.0 0.00 0.00 0.00 20 1007.3
20260905013549 83 158 8.0 18.0 0.00 0.00 0.00 20 1007.3
20260905013044 84 168 7.0 17.0 0.00 0.00 0.00 20 1007.3
20260905012547 84 252 6.0 18.0 0.00 0.00 0.00 20 1007.2
20260905012044 84 173 8.0 18.0 0.00 0.00 0.00 19 1007.3
20260905011544 85 213 5.0 22.0 0.00 0.00 0.00 20 1007.2
20260905011043 85 112 8.0 22.0 0.00 0.00 0.00 19 1007.2
20260905010543 85 158 8.0 21.0 0.00 0.00 0.00 19 1007.2
20260905010045 85 118 7.0 16.0 0.00 0.00 0.00 19 1007.2
20260905005543 85 139 8.0 17.0 0.00 0.00 0.00 19 1007.2
20260905005044 85 163 9.0 20.0 0.00 0.00 0.00 19 1007.2
20260905004546 85 172 8.0 20.0 0.00 0.00 0.00 19 1007.2
20260905004044 85 158 9.0 20.0 0.00 0.00 0.00 19 1007.3
20260905003541 85 188 9.0 20.0 0.00 0.00 0.00 18 1007.2
20260905003046 86 174 11.0 18.0 0.00 0.00 0.00 18 1007.2
20260905002540 86 195 9.0 20.0 0.00 0.00 0.00 18 1007.2
20260905002040 86 241 8.0 21.0 0.00 0.00 0.00 18 1007.3
20260905001539 86 151 9.0 23.0 0.00 0.00 0.00 18 1007.2
20260905001038 86 147 9.0 17.0 0.00 0.00 0.00 17 1007.3
20260905000540 86 136 8.0 21.0 0.00 0.00 0.00 17 1007.3
20260905000038 86 157 7.0 21.0 0.00 0.00 0.00 18 1007.3
20260904235538 86 211 9.0 21.0 0.00 0.00 0.00 17 1007.3
20260904235038 86 153 8.0 22.0 0.00 0.00 0.00 17 1007.3
20260904234537 86 164 11.0 22.0 0.00 0.00 0.00 16 1007.3
20260904234038 87 165 5.0 16.0 0.00 0.00 0.00 18 1007.4
20260904233536 86 210 5.0 17.0 0.00 0.00 0.00 17 1007.4
20260904233037 86 184 8.0 17.0 0.00 0.00 0.00 16 1007.4
20260904232535 86 148 8.0 20.0 0.00 0.00 0.00 16 1007.4
20260904232035 86 198 6.0 20.0 0.00 0.00 0.00 17 1007.5
20260904231537 86 153 8.0 25.0 0.00 0.00 0.00 16 1007.6
20260904231035 86 208 13.0 25.0 0.00 0.00 0.00 15 1007.6
20260904230535 86 148 7.0 28.0 0.00 0.00 0.00 16 1007.6
20260904230058 86 104 7.0 28.0 0.00 0.00 0.00 16 1007.6
20260904225535 86 143 10.0 18.0 0.00 0.00 0.00 15 1007.6
20260904225033 86 206 9.0 28.0 0.00 0.00 0.00 15 1007.7
20260904224534 87 191 6.0 28.0 0.00 0.00 0.00 16 1007.6
20260904224036 86 125 11.0 24.0 0.00 0.00 0.00 15 1007.7
20260904223536 86 213 14.0 24.0 0.00 0.00 0.00 15 1007.6
20260904223032 87 234 9.0 23.0 0.00 0.00 0.00 15 1007.7
20260904222530 86 144 5.0 20.0 0.00 0.00 0.00 16 1007.7
20260904222029 86 217 11.0 20.0 0.00 0.00 0.00 16 1007.8
20260904221631 86 172 8.0 19.0 0.00 0.00 0.00 16 1007.9
20260904221028 86 200 11.0 21.0 0.00 0.00 0.00 16 1007.9
20260904220528 86 150 7.0 21.0 0.00 0.00 0.00 16 1008.1
20260904220029 86 141 10.0 26.0 0.00 0.00 0.00 16 1008.1
20260904215527 86 147 13.0 26.0 0.00 0.00 0.00 15 1008.1
20260904215028 86 200 13.0 22.0 0.00 0.00 0.00 15 1008.2
20260904214526 85 110 13.0 22.0 0.00 0.00 0.00 15 1008.3
20260904214025 85 156 12.0 22.0 0.00 0.00 0.00 15 1008.3
20260904213525 85 139 9.0 20.0 0.00 0.00 0.00 15 1008.3
20260904213026 85 165 9.0 21.0 0.00 0.00 0.00 16 1008.5
20260904212525 85 162 9.0 24.0 0.00 0.00 0.00 15 1008.6
20260904212024 85 148 10.0 23.0 0.00 0.00 0.00 16 1008.6
20260904211523 85 131 7.0 17.0 0.00 0.00 0.00 16 1008.6
20260904211025 85 131 9.0 18.0 0.00 0.00 0.00 16 1008.7
20260904210523 85 202 9.0 18.0 0.00 0.00 0.00 15 1008.7
20260904210023 85 186 9.0 20.0 0.00 0.00 0.00 16 1008.9
20260904205523 85 146 9.0 23.0 0.00 0.00 0.00 15 1008.9
20260904205023 85 176 8.0 20.0 0.00 0.00 0.00 16 1009.0
20260904204523 84 178 11.0 20.0 0.00 0.00 0.00 16 1008.9
20260904204020 84 218 8.0 24.0 0.00 0.00 0.00 16 1009.0
20260904203520 84 230 11.0 24.0 0.00 0.00 0.00 16 1009.1
20260904203021 83 217 10.0 23.0 0.00 0.00 0.00 16 1009.0
20260904202519 84 150 8.0 23.0 0.00 0.00 0.00 16 1009.1
20260904202018 83 200 14.0 23.0 0.00 0.00 0.00 16 1009.2
20260904201518 83 214 8.0 22.0 0.00 0.00 0.00 16 1009.2
20260904201018 83 224 9.0 21.0 0.00 0.00 0.00 16 1009.4
20260904200518 83 136 10.0 22.0 0.00 0.00 0.00 17 1009.4
20260904200018 83 146 9.0 18.0 0.00 0.00 0.00 17 1009.5
20260904195516 82 186 11.0 20.0 0.00 0.00 0.00 18 1009.6
20260904195014 82 91 9.0 26.0 0.00 0.00 0.00 20 1009.7
20260904194515 82 161 13.0 26.0 0.00 0.00 0.00 19 1009.7
20260904194014 82 155 11.0 22.0 0.00 0.00 0.00 19 1009.8
20260904193515 82 200 10.0 18.0 0.00 0.00 0.00 20 1009.8
20260904193032 82 128 8.0 23.0 0.00 0.00 0.00 18 1009.9
20260904192514 82 162 7.0 28.0 0.00 0.00 0.00 18 1009.9
20260904192012 82 127 9.0 28.0 0.00 0.00 0.00 18 1009.8
20260904191512 82 207 9.0 19.0 0.00 0.00 0.00 18 1009.9
20260904191011 81 141 9.0 25.0 0.00 0.00 0.00 18 1009.9
20260904190511 81 163 11.0 25.0 0.00 0.00 0.00 18 1010.1
20260904190020 81 136 10.0 24.0 0.00 0.00 0.00 18 1010.1
20260904185509 81 117 8.0 24.0 0.00 0.00 0.00 22 1010.2
20260904185009 81 159 9.0 18.0 0.00 0.00 0.00 21 1010.2
20260904184508 81 123 9.0 24.0 0.00 0.00 0.00 19 1010.3
20260904184007 80 162 13.0 24.0 0.00 0.00 0.00 22 1010.4
20260904183507 80 191 10.0 19.0 0.00 0.00 0.00 23 1010.5
20260904183006 80 147 10.0 19.0 0.00 0.00 0.00 24 1010.6
20260904182504 79 141 10.0 20.0 0.00 0.00 0.00 24 1010.5
20260904182003 79 157 11.0 27.0 0.00 0.00 0.00 23 1010.6
20260904181503 79 192 12.0 27.0 0.00 0.00 0.00 23 1010.6
20260904181002 79 151 10.0 22.0 0.00 0.00 0.00 24 1010.6
20260904180504 79 148 10.0 18.0 0.00 0.00 0.00 24 1010.7
20260904180001 79 147 7.0 21.0 0.00 0.00 0.00 25 1010.7
20260904175600 79 134 11.0 21.0 0.00 0.00 0.00 24 1010.8
20260904175100 78 72 9.0 19.0 0.00 0.00 0.00 25 1010.6
20260904174559 78 138 9.0 20.0 0.00 0.00 0.00 25 1010.9
20260904174101 78 129 10.0 20.0 0.00 0.00 0.00 25 1010.9
20260904173557 78 123 9.0 23.0 0.00 0.00 0.00 25 1010.9
20260904173059 78 124 12.0 23.0 0.00 0.00 0.00 25 1011.0
20260904172557 78 167 10.0 18.0 0.00 0.00 0.00 25 1011.0
20260904172055 78 118 9.0 21.0 0.00 0.00 0.00 26 1011.0
20260904171556 78 156 7.0 23.0 0.00 0.00 0.00 26 1010.9
20260904171055 77 99 12.0 23.0 0.00 0.00 0.00 26 1010.8
20260904170554 77 165 9.0 19.0 0.00 0.00 0.00 26 1010.9
20260904170056 77 137 11.0 19.0 0.00 0.00 0.00 26 1010.9
20260904165552 77 148 9.0 21.0 0.00 0.00 0.00 26 1010.9
20260904165052 76 146 11.0 21.0 0.00 0.00 0.00 26 1010.9
20260904164551 76 143 9.0 20.0 0.00 0.00 0.00 25 1011.0
20260904164049 76 121 10.0 16.0 0.00 0.00 0.00 26 1011.0
20260904163548 76 150 8.0 17.0 0.00 0.00 0.00 25 1011.0
20260904163049 76 168 8.0 18.0 0.00 0.00 0.00 26 1011.2
20260904162546 75 120 10.0 20.0 0.00 0.00 0.00 25 1011.2
20260904162146 75 141 9.0 20.0 0.00 0.00 0.00 27 1011.2
20260904161545 75 136 9.0 19.0 0.00 0.00 0.00 26 1011.1
20260904161044 75 118 8.0 17.0 0.00 0.00 0.00 26 1011.2
20260904160544 74 129 6.0 16.0 0.00 0.00 0.00 26 1011.2
20260904160048 74 154 7.0 15.0 0.00 0.00 0.00 27 1011.2
20260904155544 73 188 7.0 17.0 0.00 0.00 0.00 27 1011.2
20260904155045 73 151 10.0 16.0 0.00 0.00 0.00 27 1011.2
20260904154544 73 136 6.0 14.0 0.00 0.00 0.00 27 1011.2
20260904154043 73 69 9.0 14.0 0.00 0.00 0.00 28 1011.1
20260904153543 73 146 8.0 14.0 0.00 0.00 0.00 28 1011.1
20260904153051 73 214 7.0 14.0 0.00 0.00 0.00 29 1011.1
20260904152542 72 139 7.0 16.0 0.00 0.00 0.00 30 1011.2
20260904152041 72 149 7.0 17.0 0.00 0.00 0.00 30 1011.1
20260904151541 72 143 7.0 17.0 0.00 0.00 0.00 31 1011.1
20260904151041 72 145 6.0 15.0 0.00 0.00 0.00 31 1011.2
20260904150546 72 165 4.0 15.0 0.00 0.00 0.00 30 1011.2
20260904150052 71 150 7.0 15.0 0.00 0.00 0.00 31 1011.1
20260904145541 71 250 7.0 15.0 0.00 0.00 0.00 30 1011.2
20260904145043 71 223 3.0 13.0 0.00 0.00 0.00 30 1011.2
20260904144539 71 184 6.0 14.0 0.00 0.00 0.00 27 1011.1
20260904144039 71 157 7.0 14.0 0.00 0.00 0.00 25 1011.0
20260904143538 71 159 5.0 14.0 0.00 0.00 0.00 24 1011.1
20260904143039 71 160 6.0 12.0 0.00 0.00 0.00 25 1011.1
20260904142538 71 151 6.0 13.0 0.00 0.00 0.00 23 1011.1
20260904142038 70 160 6.0 11.0 0.00 0.00 0.00 24 1011.0
20260904141537 70 148 4.0 11.0 0.00 0.00 0.00 25 1011.0
20260904141037 70 176 3.0 11.0 0.00 0.00 0.00 26 1011.0
20260904140540 70 162 4.0 11.0 0.00 0.00 0.00 26 1011.0
20260904140036 69 186 2.0 10.0 0.00 0.00 0.00 26 1011.0
20260904135536 69 148 3.0 8.0 0.00 0.00 0.00 25 1010.9
20260904135036 69 150 2.0 6.0 0.00 0.00 0.00 25 1010.9
20260904134541 68 149 2.0 7.0 0.00 0.00 0.00 25 1010.9
20260904134034 68 132 3.0 7.0 0.00 0.00 0.00 25 1010.8
20260904133534 67 195 2.0 6.0 0.00 0.00 0.00 25 1010.8
20260904133033 67 160 2.0 7.0 0.00 0.00 0.00 25 1010.8
20260904132533 66 217 2.0 8.0 0.00 0.00 0.00 25 1010.8
20260904132031 66 210 3.0 8.0 0.00 0.00 0.00 24 1010.7
20260904131531 67 161 2.0 6.0 0.00 0.00 0.00 24 1010.6
20260904131030 67 167 1.0 8.0 0.00 0.00 0.00 23 1010.5
20260904130533 67 212 3.0 9.0 0.00 0.00 0.00 22 1010.5
20260904130041 67 144 2.0 9.0 0.00 0.00 0.00 22 1010.4
20260904125529 67 139 5.0 12.0 0.00 0.00 0.00 21 1010.4
20260904125029 67 179 4.0 11.0 0.00 0.00 0.00 21 1010.4
20260904124529 67 144 4.0 10.0 0.00 0.00 0.00 21 1010.4
20260904124031 67 159 4.0 10.0 0.00 0.00 0.00 21 1010.3
20260904123530 67 144 2.0 10.0 0.00 0.00 0.00 21 1010.2
20260904123026 67 155 4.0 10.0 0.00 0.00 0.00 21 1010.1
20260904122525 67 188 3.0 10.0 0.00 0.00 0.00 21 1010.0
20260904122025 67 169 4.0 12.0 0.00 0.00 0.00 21 1010.1
20260904121524 67 142 5.0 12.0 0.00 0.00 0.00 21 1010.0
20260904121025 67 153 2.0 6.0 0.00 0.00 0.00 21 1009.9
20260904120523 67 210 2.0 6.0 0.00 0.00 0.00 21 1009.9
20260904120033 67 185 2.0 7.0 0.00 0.00 0.00 21 1009.9
20260904115522 67 172 2.0 8.0 0.00 0.00 0.00 21 1009.9
20260904115023 67 164 3.0 11.0 0.00 0.00 0.00 20 1009.8
20260904114525 67 139 2.0 11.0 0.00 0.00 0.00 21 1009.9
20260904114024 67 153 0.0 6.0 0.00 0.00 0.00 20 1009.8
20260904113520 67 146 1.0 3.0 0.00 0.00 0.00 20 1009.9
20260904113020 67 219 1.0 8.0 0.00 0.00 0.00 19 1009.8
20260904112519 68 200 0.0 8.0 0.00 0.00 0.00 19 1009.8
20260904112017 68 188 1.0 6.0 0.00 0.00 0.00 18 1009.8
20260904111517 68 146 3.0 0.0 0.00 0.00 0.00 18 1009.9
20260904111017 68 152 2.0 7.0 0.00 0.00 0.00 18 1009.9
20260904110516 68 186 2.0 7.0 0.00 0.00 0.00 18 1009.9
20260904110016 69 153 2.0 9.0 0.00 0.00 0.00 17 1009.9
20260904105513 69 132 2.0 9.0 0.00 0.00 0.00 17 1009.8
20260904105013 69 154 3.0 9.0 0.00 0.00 0.00 17 1009.7
20260904104522 69 120 5.0 9.0 0.00 0.00 0.00 17 1009.8
20260904104013 69 148 4.0 9.0 0.00 0.00 0.00 17 1009.7
20260904103512 69 158 3.0 9.0 0.00 0.00 0.00 17 1009.7
20260904103012 69 176 4.0 10.0 0.00 0.00 0.00 17 1009.6
20260904102512 69 178 3.0 9.0 0.00 0.00 0.00 18 1009.7
20260904102011 69 131 4.0 8.0 0.00 0.00 0.00 20 1009.6
20260904101509 69 129 3.0 7.0 0.00 0.00 0.00 21 1009.6
20260904101009 69 149 3.0 6.0 0.00 0.00 0.00 22 1009.4
20260904100508 69 136 1.0 10.0 0.00 0.00 0.00 22 1009.4
20260904100007 69 120 1.0 10.0 0.00 0.00 0.00 21 1009.3
20260904095510 70 175 3.0 11.0 0.00 0.00 0.00 20 1009.3
20260904095005 70 144 5.0 11.0 0.00 0.00 0.00 20 1009.1
20260904094504 70 142 4.0 12.0 0.00 0.00 0.00 19 1009.0
20260904094003 70 257 6.0 12.0 0.00 0.00 0.00 19 1009.0
20260904093503 70 150 4.0 13.0 0.00 0.00 0.00 20 1009.0
20260904093003 70 129 4.0 13.0 0.00 0.00 0.00 20 1009.0
20260904092503 70 156 4.0 12.0 0.00 0.00 0.00 20 1008.9
20260904092002 70 130 6.0 12.0 0.00 0.00 0.00 19 1009.0
20260904091502 70 195 3.0 14.0 0.00 0.00 0.00 19 1008.8
20260904091102 70 147 4.0 14.0 0.00 0.00 0.00 20 1008.8
20260904090559 70 194 4.0 13.0 0.00 0.00 0.00 20 1008.8
20260904090059 71 151 5.0 13.0 0.00 0.00 0.00 19 1008.8
20260904085559 70 150 7.0 13.0 0.00 0.00 0.00 19 1008.7
20260904085058 71 208 3.0 13.0 0.00 0.00 0.00 19 1008.8
20260904084559 70 154 6.0 13.0 0.00 0.00 0.00 20 1008.6
20260904084058 71 221 4.0 13.0 0.00 0.00 0.00 20 1008.6
20260904083558 70 132 5.0 13.0 0.00 0.00 0.00 20 1008.5
20260904083055 70 161 7.0 13.0 0.00 0.00 0.00 20 1008.6
20260904082555 70 182 4.0 10.0 0.00 0.00 0.00 21 1008.6
20260904082054 71 228 4.0 13.0 0.00 0.00 0.00 20 1008.4
20260904081558 71 173 5.0 15.0 0.00 0.00 0.00 20 1008.4
20260904081051 71 184 5.0 15.0 0.00 0.00 0.00 20 1008.4
20260904080552 71 160 7.0 15.0 0.00 0.00 0.00 20 1008.2
20260904080049 72 156 7.0 15.0 0.00 0.00 0.00 19 1008.4
20260904075548 72 162 5.0 20.0 0.00 0.00 0.00 18 1008.5
20260904075047 72 150 5.0 17.0 0.00 0.00 0.00 19 1008.5
20260904074547 72 244 5.0 16.0 0.00 0.00 0.00 18 1008.6
20260904074045 72 150 7.0 16.0 0.00 0.00 0.00 17 1008.5
20260904073548 72 153 5.0 14.0 0.00 0.00 0.00 17 1008.5
20260904073043 72 157 6.0 13.0 0.00 0.00 0.00 17 1008.4
20260904072543 72 146 5.0 13.0 0.00 0.00 0.00 16 1008.5
20260904072043 73 173 4.0 17.0 0.00 0.00 0.00 16 1008.4
20260904071542 73 149 4.0 17.0 0.00 0.00 0.00 16 1008.4
20260904071041 73 163 7.0 14.0 0.00 0.00 0.00 16 1008.4
20260904070541 73 158 6.0 18.0 0.00 0.00 0.00 16 1008.4
20260904070040 74 136 11.0 18.0 0.00 0.00 0.00 15 1008.3
20260904065539 74 146 6.0 16.0 0.00 0.00 0.00 15 1008.4
20260904065038 74 162 8.0 15.0 0.00 0.00 0.00 16 1008.4
20260904064537 73 143 6.0 18.0 0.00 0.00 0.00 16 1008.4
20260904064036 73 156 10.0 18.0 0.00 0.00 0.00 16 1008.3
20260904063535 72 127 4.0 11.0 0.00 0.00 0.00 20 1008.3
20260904063038 73 165 5.0 15.0 0.00 0.00 0.00 19 1008.2
20260904062532 74 145 4.0 15.0 0.00 0.00 0.00 17 1008.2
20260904062032 73 160 6.0 14.0 0.00 0.00 0.00 18 1008.1
20260904061540 74 109 4.0 14.0 0.00 0.00 0.00 18 1008.1
20260904061029 74 179 8.0 18.0 0.00 0.00 0.00 18 1008.0
20260904060528 75 129 5.0 22.0 0.00 0.00 0.00 16 1008.0
20260904060026 75 109 9.0 21.0 0.00 0.00 0.00 15 1007.9
20260904055525 75 143 8.0 21.0 0.00 0.00 0.00 16 1007.9
20260904055025 75 158 7.0 17.0 0.00 0.00 0.00 16 1007.9
20260904054527 75 165 5.0 17.0 0.00 0.00 0.00 16 1007.8
20260904054027 75 127 5.0 16.0 0.00 0.00 0.00 16 1007.8
20260904053528 75 158 9.0 16.0 0.00 0.00 0.00 16 1007.8
20260904053025 75 140 6.0 15.0 0.00 0.00 0.00 16 1007.8
20260904052525 75 173 7.0 13.0 0.00 0.00 0.00 16 1007.8
20260904052025 75 186 6.0 13.0 0.00 0.00 0.00 17 1007.7
20260904051524 75 158 4.0 13.0 0.00 0.00 0.00 16 1007.7
20260904051026 76 141 5.0 13.0 0.00 0.00 0.00 16 1007.8
20260904050524 76 147 6.0 14.0 0.00 0.00 0.00 16 1007.8
20260904050024 76 144 5.0 14.0 0.00 0.00 0.00 16 1007.8
20260904045524 76 166 5.0 14.0 0.00 0.00 0.00 16 1007.8
20260904045024 76 122 8.0 21.0 0.00 0.00 0.00 15 1007.9
20260904044536 77 151 8.0 21.0 0.00 0.00 0.00 15 1007.9
20260904044023 77 167 5.0 16.0 0.00 0.00 0.00 15 1007.9
20260904043523 77 166 6.0 18.0 0.00 0.00 0.00 15 1007.8
20260904043032 77 142 7.0 18.0 0.00 0.00 0.00 15 1007.9
20260904042523 77 144 8.0 19.0 0.00 0.00 0.00 15 1007.8
20260904042024 77 129 8.0 17.0 0.00 0.00 0.00 15 1007.8
20260904041523 76 227 6.0 16.0 0.00 0.00 0.00 16 1007.8
20260904041022 76 180 6.0 16.0 0.00 0.00 0.00 16 1007.7
20260904040522 76 131 6.0 14.0 0.00 0.00 0.00 16 1007.8
20260904040022 76 161 6.0 14.0 0.00 0.00 0.00 16 1007.8
20260904035522 76 150 5.0 14.0 0.00 0.00 0.00 16 1007.7
20260904035024 76 150 6.0 14.0 0.00 0.00 0.00 16 1007.6
20260904034521 76 181 5.0 11.0 0.00 0.00 0.00 16 1007.6
20260904034021 76 156 3.0 10.0 0.00 0.00 0.00 16 1007.5
20260904033522 76 167 4.0 11.0 0.00 0.00 0.00 16 1007.6
20260904033020 76 151 4.0 11.0 0.00 0.00 0.00 16 1007.6
20260904032520 76 194 3.0 10.0 0.00 0.00 0.00 16 1007.6
20260904032021 76 199 3.0 8.0 0.00 0.00 0.00 16 1007.6
20260904031520 77 158 3.0 10.0 0.00 0.00 0.00 16 1007.6
20260904031019 77 139 3.0 11.0 0.00 0.00 0.00 15 1007.6
20260904030520 77 201 3.0 11.0 0.00 0.00 0.00 16 1007.5
20260904030022 77 255 4.0 13.0 0.00 0.00 0.00 15 1007.5
20260904025519 77 150 4.0 13.0 0.00 0.00 0.00 15 1007.5
20260904025020 77 221 3.0 9.0 0.00 0.00 0.00 15 1007.5